User: anonymous   Login
Location: Colorado Springs
(38.8340°N, 104.8210°W)
Time: 15:31:40
(UTC-06:00)
Language:

Envisat - Orbit

View from above orbital plane
View from above orbital plane
View from above satellite
View from above satellite

Ground track
Ground track

The orbit data is extracted from the following two-line orbital elements,

1 27386U 02009A   18200.17200671 -.00000014  00000-0  89613-5 0  9990
2 27386  98.1820 232.7219 0001369  96.3124 304.3096 14.37926029858128
Epoch (UTC): 19 July 2018 04:07:41
Eccentricity: 0.0001369
inclination: 98.1820°
perigee height: 764 km
apogee height: 766 km
right ascension of ascending node: 232.7219°
argument of perigee: 96.3124°
revolutions per day: 14.37926029
mean anomaly at epoch: 304.3096°
orbit number at epoch: 85812

The dashed part of the orbit path shows where the satellite is in the earth's shadow,  

DLR